Weather in Visim

Russia / Sverdlovsk Oblast     57°39′05″N   59°29′47″E
В апреле 2022 года жителям России запретили посещать сайт meteo.paraplan.net по решению Генеральной прокуратуры. Аудитория сайта уменьшилась в 10 раз. Владельцы сайта не видят смысла в поддержке погодного сервера в таких условиях. Сайт будет закрыт в октябре.
temp.,
°C
wind,
m/s
gust,
m/s
humid.,
%
clouds,
%
prec.,
mm/h
press.,
hPa
HPBL,
m
4 october, tue
tue423:00+8sw51572100 1.2 1026432
02:00+7wsw41474100 0.0 1027384
05:00+6wsw41472100 0.0 1028349
08:00+5sw31273100 0.0 1030283
11:00+10wsw485412 0.0 1030367
14:00+14wsw47445 0.0 1030625
17:00+13wsw37545 0.0 1030492
20:00+8sw22725 0.0 103222
5 october, wed
wed523:00+6sw22750 0.0 103213
02:00+6sw2279100 0.0 103214
05:00+4sw227428 0.0 103225
08:00+4sw2564100 0.0 103295
11:00+9sw4945100 0.0 1030446
14:00+10sw3840100 0.0 1029661
17:00+9ssw3846100 0.0 1029607
20:00+6ssw2758100 0.0 1029188
6 october, thu
thu623:00+6s2657100 0.0 1028145
02:00+7ssw31051100 0.0 1027335
05:00+7ssw41246100 0.0 1026542
08:00+5sse2472100 0.2 1024151
11:00+10sse2751100 0.2 1021409
14:00+12s41041100 0.0 10191036
17:00+8s4979100 0.0 1018616
20:00+7ssw4791100 0.8 1018812
7 october, fri
fri723:00+7ssw4985100 1.1 1017716
02:00+6sw3882100 0.0 1016511
05:00+5ssw288897 0.0 1015360
08:00+5sw399093 0.0 1015406
11:00+7sw47735 0.0 1014679
14:00+9wsw575898 0.0 10131486
17:00+6wsw4875100 0.1 1013888
20:00+5sw497888 0.0 1012651
8 october, sat
sat823:00+5sw41086100 0.1 1011788
02:00+5sw4996100 0.6 10091064
05:00+5w5997100 2.1 10081008
08:00+6w51089100 0.3 10081044
11:00+7wnw61186100 0.5 10101029
14:00+8wnw6117773 0.3 10111193
17:00+6wnw6117883 0.6 10141091
20:00+5wnw51283100 0.1 10171043